,,Stat6,,Stat2,,Stat8,,Stat9,,Stat10,,Wind1,,Wind1,
time,status,PA1M_AVG,status,PR1M_SUM,status,RH1M_AVG,status,SR1M_AVG,status,TA1M_AVG,status,W1dAve1m,status,W1sAve1m,
2009-06-18, 00:00:00,VALID,917.964,VALID,0,VALID,100,VALID,-0.0849042,VALID,18.2866,VALID,141,VALID,0,
2009-06-18, 00:01:00,VALID,917.977,VALID,0,VALID,100,VALID,-0.101885,VALID,18.2734,VALID,143,VALID,0,
2009-06-18, 00:02:00,VALID,917.971,VALID,0,VALID,100,VALID,-0.0679233,VALID,18.2569,VALID,144,VALID,0,
2009-06-18, 00:03:00,VALID,917.964,VALID,0,VALID,100,VALID,-0.0509425,VALID,18.263,VALID,148,VALID,0,
2009-06-18, 00:04:00,VALID,917.943,VALID,0,VALID,100,VALID,-0.0679233,VALID,18.2896,VALID,154,VALID,0,
2009-06-18, 00:05:00,VALID,917.922,VALID,0,VALID,100,VALID,-0.0679233,VALID,18.3121,VALID,155,VALID,0,
2009-06-18, 00:06:00,VALID,917.918,VALID,0,VALID,100,VALID,-0.0849042,VALID,18.2993,VALID,155,VALID,0,
2009-06-18, 00:07:00,VALID,917.891,VALID,0,VALID,100,VALID,-0.0679233,VALID,18.2732,VALID,155,VALID,0,
2009-06-18, 00:08:00,VALID,917.88,VALID,0,VALID,100,VALID,-0.0679233,VALID,18.2507,VALID,155,VALID,0,
2009-06-18, 00:09:00,VALID,917.857,VALID,0,VALID,100,VALID,-0.0679233,VALID,18.228,VALID,154,VALID,0,
2009-06-18, 00:10:00,VALID,917.833,VALID,0,VALID,100,VALID,-0.0849042,VALID,18.2312,VALID,154,VALID,0,
2009-06-18, 00:11:00,VALID,917.835,VALID,0,VALID,100,VALID,-0.0849042,VALID,18.2375,VALID,152,VALID,0,
2009-06-18, 00:12:00,VALID,917.813,VALID,0,VALID,100,VALID,0.0169808,VALID,18.2655,VALID,152,VALID,0,
2009-06-18, 00:13:00,VALID,917.804,VALID,0,VALID,100,VALID,0.0169808,VALID,18.2977,VALID,152,VALID,0,
2009-06-18, 00:14:00,VALID,917.774,VALID,0,VALID,100,VALID,0.0169808,VALID,18.3271,VALID,150,VALID,0,
2009-06-18, 00:15:00,VALID,917.763,VALID,0,VALID,100,VALID,0.0169808,VALID,18.3498,VALID,146,VALID,0,
2009-06-18, 00:16:00,VALID,917.762,VALID,0,VALID,100,VALID,0.0169808,VALID,18.3271,VALID,146,VALID,0,
2009-06-18, 00:17:00,VALID,917.751,VALID,0,VALID,100,VALID,0,VALID,18.3433,VALID,146,VALID,0,
2009-06-18, 00:18:00,VALID,917.735,VALID,0,VALID,100,VALID,0.0169808,VALID,18.3468,VALID,148,VALID,0,
2009-06-18, 00:19:00,VALID,917.714,VALID,0,VALID,100,VALID,0,VALID,18.3044,VALID,149,VALID,0,
2009-06-18, 00:20:00,VALID,917.704,VALID,0,VALID,100,VALID,0,VALID,18.2889,VALID,149,VALID,0,
2009-06-18, 00:21:00,VALID,917.69,VALID,0,VALID,100,VALID,-0.0169808,VALID,18.2752,VALID,150,VALID,0,
2009-06-18, 00:22:01,VALID,917.69,VALID,0,VALID,100,VALID,0,VALID,18.3012,VALID,151,VALID,0,
2009-06-18, 00:23:01,VALID,917.672,VALID,0,VALID,100,VALID,-0.0339617,VALID,18.3079,VALID,143,VALID,0,
2009-06-18, 00:24:00,VALID,917.665,VALID,0,VALID,100,VALID,0.0169808,VALID,18.2623,VALID,140,VALID,0,
2009-06-18, 00:25:00,VALID,917.638,VALID,0,VALID,100,VALID,0,VALID,18.2266,VALID,140,VALID,0,
2009-06-18, 00:26:00,VALID,917.624,VALID,0,VALID,100,VALID,-0.0169808,VALID,18.2044,VALID,140,VALID,0,
2009-06-18, 00:27:00,VALID,917.618,VALID,0,VALID,100,VALID,-0.0169808,VALID,18.1942,VALID,140,VALID,0,
2009-06-18, 00:28:00,VALID,917.598,VALID,0,VALID,100,VALID,0,VALID,18.2136,VALID,144,VALID,0,
2009-06-18, 00:29:01,VALID,917.567,VALID,0,VALID,100,VALID,0,VALID,18.2206,VALID,144,VALID,0,
2009-06-18, 00:30:00,VALID,917.546,VALID,0,VALID,100,VALID,0,VALID,18.1879,VALID,140,VALID,0,
2009-06-18, 00:31:01,VALID,917.551,VALID,0,VALID,100,VALID,0,VALID,18.165,VALID,140,VALID,0,
2009-06-18, 00:32:00,VALID,917.535,VALID,0,VALID,100,VALID,-0.0339617,VALID,18.123,VALID,141,VALID,0,
2009-06-18, 00:33:01,VALID,917.539,VALID,0,VALID,100,VALID,0.0169808,VALID,18.1325,VALID,145,VALID,0,
2009-06-18, 00:34:00,VALID,917.517,VALID,0,VALID,100,VALID,0.0169808,VALID,18.139,VALID,139,VALID,0,
2009-06-18, 00:35:00,VALID,917.501,VALID,0,VALID,100,VALID,0,VALID,18.1261,VALID,138,VALID,0,
2009-06-18, 00:36:00,VALID,917.485,VALID,0,VALID,100,VALID,0.0169808,VALID,18.1418,VALID,143,VALID,0,
2009-06-18, 00:37:01,VALID,917.474,VALID,0,VALID,100,VALID,0,VALID,18.142,VALID,143,VALID,0,
2009-06-18, 00:38:00,VALID,917.455,VALID,0,VALID,100,VALID,0,VALID,18.1323,VALID,143,VALID,0,
2009-06-18, 00:39:00,VALID,917.445,VALID,0,VALID,100,VALID,0.0169808,VALID,18.1226,VALID,141,VALID,0,
2009-06-18, 00:40:01,VALID,917.419,VALID,0,VALID,100,VALID,0.0169808,VALID,18.1163,VALID,142,VALID,0,
2009-06-18, 00:41:00,VALID,917.398,VALID,0,VALID,100,VALID,0.0339617,VALID,18.1101,VALID,140,VALID,0,
2009-06-18, 00:42:01,VALID,917.373,VALID,0,VALID,100,VALID,-0.0849042,VALID,18.1209,VALID,136,VALID,0.110137,
2009-06-18, 00:43:01,VALID,917.368,VALID,0,VALID,100,VALID,-0.0339617,VALID,18.1464,VALID,138,VALID,0.064596,
2009-06-18, 00:44:00,VALID,917.347,VALID,0,VALID,99.9692,VALID,-0.101885,VALID,18.127,VALID,142,VALID,0,
2009-06-18, 00:45:01,VALID,917.335,VALID,0,VALID,99.9453,VALID,-0.0679233,VALID,18.1242,VALID,142,VALID,0,
2009-06-18, 00:46:00,VALID,917.341,VALID,0,VALID,100,VALID,-0.101885,VALID,18.1205,VALID,143,VALID,0,
2009-06-18, 00:47:01,VALID,917.329,VALID,0,VALID,100,VALID,-0.101885,VALID,18.1307,VALID,144,VALID,0,
2009-06-18, 00:48:00,VALID,917.331,VALID,0,VALID,99.9377,VALID,-0.0849042,VALID,18.1402,VALID,150,VALID,0,
2009-06-18, 00:49:00,VALID,917.314,VALID,0,VALID,99.8718,VALID,-0.0679233,VALID,18.1242,VALID,147,VALID,0,
2009-06-18, 00:50:01,VALID,917.302,VALID,0,VALID,99.8464,VALID,-0.0339617,VALID,18.1114,VALID,143,VALID,0,
2009-06-18, 00:51:01,VALID,917.3,VALID,0,VALID,99.8527,VALID,-0.0849042,VALID,18.1015,VALID,133,VALID,0,
2009-06-18, 00:52:01,VALID,917.295,VALID,0,VALID,99.8464,VALID,-0.0509425,VALID,18.0716,VALID,129,VALID,0,
2009-06-18, 00:53:01,VALID,917.291,VALID,0,VALID,99.9964,VALID,-0.0679233,VALID,18.0818,VALID,130,VALID,0,
2009-06-18, 00:54:00,VALID,917.279,VALID,0,VALID,100,VALID,-0.0679233,VALID,18.0881,VALID,130,VALID,0,
2009-06-18, 00:55:01,VALID,917.288,VALID,0,VALID,100,VALID,-0.0509425,VALID,18.0783,VALID,131,VALID,0,
2009-06-18, 00:56:00,VALID,917.297,VALID,0,VALID,99.9967,VALID,-0.0849042,VALID,18.0846,VALID,139,VALID,0,
2009-06-18, 00:57:01,VALID,917.308,VALID,0,VALID,99.9504,VALID,-0.0849042,VALID,18.092,VALID,140,VALID,0,
2009-06-18, 00:58:01,VALID,917.308,VALID,0,VALID,99.8896,VALID,-0.118866,VALID,18.092,VALID,140,VALID,0,
2009-06-18, 00:59:00,VALID,917.284,VALID,0,VALID,99.8133,VALID,-0.0849042,VALID,18.0686,VALID,140,VALID,0,
2009-06-18, 01:00:01,VALID,917.255,VALID,0,VALID,99.7841,VALID,-0.0849042,VALID,18.0262,VALID,141,VALID,0,
2009-06-18, 01:01:00,VALID,917.242,VALID,0,VALID,99.9385,VALID,-0.0849042,VALID,18.0267,VALID,137,VALID,0,
2009-06-18, 01:02:01,VALID,917.231,VALID,0,VALID,100,VALID,-0.101885,VALID,18.0464,VALID,141,VALID,0,
2009-06-18, 01:03:01,VALID,917.237,VALID,0,VALID,100,VALID,-0.101885,VALID,18.0626,VALID,140,VALID,0,
2009-06-18, 01:04:01,VALID,917.24,VALID,0,VALID,99.9591,VALID,-0.101885,VALID,18.0591,VALID,140,VALID,0,
2009-06-18, 01:05:01,VALID,917.228,VALID,0,VALID,99.7548,VALID,-0.0509425,VALID,18.0427,VALID,140,VALID,0,
2009-06-18, 01:06:01,VALID,917.217,VALID,0,VALID,99.6836,VALID,-0.0849042,VALID,18.0269,VALID,140,VALID,0,
2009-06-18, 01:07:01,VALID,917.207,VALID,0,VALID,99.7726,VALID,-0.101885,VALID,18.0299,VALID,143,VALID,0,
2009-06-18, 01:08:01,VALID,917.212,VALID,0,VALID,99.8311,VALID,-0.0679233,VALID,18.0429,VALID,148,VALID,0,
2009-06-18, 01:09:01,VALID,917.201,VALID,0,VALID,99.8222,VALID,-0.101885,VALID,18.0626,VALID,148,VALID,0,
2009-06-18, 01:10:01,VALID,917.19,VALID,0,VALID,99.7841,VALID,-0.118866,VALID,18.0786,VALID,147,VALID,0,
2009-06-18, 01:11:01,VALID,917.183,VALID,0,VALID,99.6518,VALID,-0.0509425,VALID,18.0786,VALID,143,VALID,0,
2009-06-18, 01:12:01,VALID,917.166,VALID,0,VALID,99.6544,VALID,0,VALID,18.0809,VALID,135,VALID,0,
2009-06-18, 01:13:01,VALID,917.157,VALID,0,VALID,99.6862,VALID,0,VALID,18.1006,VALID,142,VALID,0,
2009-06-18, 01:14:00,VALID,917.149,VALID,0,VALID,99.6137,VALID,0,VALID,18.123,VALID,147,VALID,0,
2009-06-18, 01:15:00,VALID,917.136,VALID,0,VALID,99.47,VALID,0.0169808,VALID,18.1228,VALID,147,VALID,0,
2009-06-18, 01:16:00,VALID,917.134,VALID,0,VALID,99.3962,VALID,0,VALID,18.1198,VALID,149,VALID,0,
2009-06-18, 01:17:00,VALID,917.128,VALID,0,VALID,99.3823,VALID,0,VALID,18.1034,VALID,149,VALID,0,
2009-06-18, 01:18:00,VALID,917.106,VALID,0,VALID,99.5425,VALID,0.0169808,VALID,18.1034,VALID,150,VALID,0,
2009-06-18, 01:19:00,VALID,917.089,VALID,0,VALID,99.5921,VALID,0,VALID,18.1036,VALID,149,VALID,0.0600818,
2009-06-18, 01:20:00,VALID,917.075,VALID,0,VALID,99.6671,VALID,0,VALID,18.0871,VALID,143,VALID,0,
2009-06-18, 01:21:00,VALID,917.066,VALID,0,VALID,99.6048,VALID,-0.0169808,VALID,18.045,VALID,143,VALID,0,
2009-06-18, 01:22:00,VALID,917.053,VALID,0,VALID,99.5883,VALID,0,VALID,18.016,VALID,147,VALID,0,
2009-06-18, 01:23:00,VALID,917.034,VALID,0,VALID,99.6468,VALID,-0.0339617,VALID,17.9801,VALID,141,VALID,0,
2009-06-18, 01:24:00,VALID,917.002,VALID,0,VALID,99.7548,VALID,0.0169808,VALID,17.9637,VALID,146,VALID,0,
2009-06-18, 01:25:00,VALID,916.994,VALID,0,VALID,99.7752,VALID,0.0169808,VALID,17.9442,VALID,144,VALID,0,
2009-06-18, 01:26:00,VALID,916.975,VALID,0,VALID,99.8769,VALID,0,VALID,17.938,VALID,140,VALID,0.0470526,
2009-06-18, 01:27:00,VALID,916.972,VALID,0,VALID,99.8833,VALID,0.0169808,VALID,17.9574,VALID,144,VALID,0.00981105,
2009-06-18, 01:28:00,VALID,916.949,VALID,0,VALID,99.7243,VALID,0,VALID,17.9535,VALID,135,VALID,0,
2009-06-18, 01:29:00,VALID,916.927,VALID,0,VALID,99.6595,VALID,0,VALID,17.9604,VALID,142,VALID,0,
2009-06-18, 01:30:00,VALID,916.926,VALID,0,VALID,99.5399,VALID,0,VALID,17.9607,VALID,143,VALID,0.0481468,
2009-06-18, 01:31:00,VALID,916.923,VALID,0,VALID,99.5717,VALID,0,VALID,17.9736,VALID,141,VALID,0.111151,
2009-06-18, 01:32:00,VALID,916.922,VALID,0,VALID,99.5272,VALID,0,VALID,17.9831,VALID,147,VALID,0,
2009-06-18, 01:33:00,VALID,916.909,VALID,0,VALID,99.409,VALID,0,VALID,17.9834,VALID,142,VALID,0,
2009-06-18, 01:34:00,VALID,916.897,VALID,0,VALID,99.3327,VALID,0.0339617,VALID,17.9801,VALID,138,VALID,0,
2009-06-18, 01:35:00,VALID,916.892,VALID,0,VALID,99.4242,VALID,0.0169808,VALID,17.9929,VALID,131,VALID,0.181141,
2009-06-18, 01:36:00,VALID,916.921,VALID,0,VALID,99.3174,VALID,-0.0169808,VALID,18.029,VALID,131,VALID,0.00104167,
2009-06-18, 01:37:00,VALID,916.943,VALID,0,VALID,99.1585,VALID,0,VALID,18.019,VALID,132,VALID,0,
2009-06-18, 01:38:00,VALID,916.93,VALID,0,VALID,99.0097,VALID,0,VALID,18.0128,VALID,143,VALID,0,
2009-06-18, 01:39:00,VALID,916.938,VALID,0,VALID,98.9855,VALID,-0.0339617,VALID,17.9936,VALID,147,VALID,0,
2009-06-18, 01:40:00,VALID,916.926,VALID,0,VALID,99.0834,VALID,0,VALID,18.0061,VALID,142,VALID,0,
2009-06-18, 01:41:00,VALID,916.916,VALID,0,VALID,99.1152,VALID,0,VALID,17.9862,VALID,145,VALID,0,
2009-06-18, 01:42:00,VALID,916.913,VALID,0,VALID,99.1546,VALID,-0.0849042,VALID,18.0042,VALID,139,VALID,0,
2009-06-18, 01:43:00,VALID,916.917,VALID,0,VALID,99.0377,VALID,-0.101885,VALID,18.0074,VALID,145,VALID,0,
2009-06-18, 01:44:00,VALID,916.919,VALID,0,VALID,98.9944,VALID,-0.101885,VALID,17.9979,VALID,142,VALID,0,
2009-06-18, 01:45:00,VALID,916.931,VALID,0,VALID,98.9881,VALID,-0.118866,VALID,17.9782,VALID,141,VALID,0,
2009-06-18, 01:46:00,VALID,916.929,VALID,0,VALID,99.0033,VALID,-0.118866,VALID,17.9586,VALID,139,VALID,0,
2009-06-18, 01:47:00,VALID,916.924,VALID,0,VALID,98.9995,VALID,-0.101885,VALID,17.9194,VALID,139,VALID,0,
2009-06-18, 01:48:00,VALID,916.915,VALID,0,VALID,99.086,VALID,-0.0849042,VALID,17.8972,VALID,139,VALID,0,
2009-06-18, 01:49:00,VALID,916.886,VALID,0,VALID,99.2386,VALID,-0.118866,VALID,17.8842,VALID,143,VALID,0,
2009-06-18, 01:50:00,VALID,916.87,VALID,0,VALID,99.3047,VALID,-0.101885,VALID,17.8745,VALID,137,VALID,0,
2009-06-18, 01:51:00,VALID,916.843,VALID,0,VALID,99.3021,VALID,-0.101885,VALID,17.8745,VALID,142,VALID,0,
2009-06-18, 01:52:00,VALID,916.827,VALID,0,VALID,99.3365,VALID,-0.118866,VALID,17.8905,VALID,143,VALID,0,
2009-06-18, 01:53:00,VALID,916.823,VALID,0,VALID,99.1508,VALID,-0.101885,VALID,17.8937,VALID,143,VALID,0,
2009-06-18, 01:54:00,VALID,916.828,VALID,0,VALID,99.2208,VALID,-0.0849042,VALID,17.9099,VALID,134,VALID,0,
2009-06-18, 01:55:00,VALID,916.836,VALID,0,VALID,99.1216,VALID,-0.101885,VALID,17.9132,VALID,135,VALID,0,
2009-06-18, 01:56:00,VALID,916.867,VALID,0,VALID,98.9626,VALID,-0.101885,VALID,17.8935,VALID,138,VALID,0,
2009-06-18, 01:57:00,VALID,916.888,VALID,0,VALID,99.0491,VALID,-0.101885,VALID,17.8837,VALID,139,VALID,0,
2009-06-18, 01:58:00,VALID,916.881,VALID,0,VALID,99.1406,VALID,-0.0679233,VALID,17.9199,VALID,140,VALID,0,
2009-06-18, 01:59:00,VALID,916.872,VALID,0,VALID,99.1318,VALID,-0.0849042,VALID,17.9361,VALID,138,VALID,0,
2009-06-18, 02:00:00,VALID,916.862,VALID,0,VALID,99.133,VALID,-0.101885,VALID,17.9685,VALID,133,VALID,0,
2009-06-18, 02:01:00,VALID,916.859,VALID,0,VALID,98.9881,VALID,-0.118866,VALID,18.0009,VALID,130,VALID,0,
2009-06-18, 02:02:00,VALID,916.855,VALID,0,VALID,98.8431,VALID,-0.101885,VALID,17.9776,VALID,125,VALID,0,
2009-06-18, 02:03:00,VALID,916.82,VALID,0,VALID,98.9372,VALID,-0.0509425,VALID,17.9843,VALID,130,VALID,0,
2009-06-18, 02:04:00,VALID,916.806,VALID,0,VALID,98.9461,VALID,-0.0849042,VALID,17.984,VALID,133,VALID,0,
2009-06-18, 02:05:00,VALID,916.812,VALID,0,VALID,98.8863,VALID,-0.0849042,VALID,17.9877,VALID,133,VALID,0,
2009-06-18, 02:06:00,VALID,916.803,VALID,0,VALID,98.7604,VALID,-0.0509425,VALID,17.9486,VALID,130,VALID,0,
2009-06-18, 02:07:00,VALID,916.809,VALID,0,VALID,98.9563,VALID,-0.0679233,VALID,17.9224,VALID,132,VALID,0,
2009-06-18, 02:08:00,VALID,916.814,VALID,0,VALID,99.1318,VALID,-0.0679233,VALID,17.9125,VALID,134,VALID,0,
2009-06-18, 02:09:00,VALID,916.808,VALID,0,VALID,99.0529,VALID,-0.0679233,VALID,17.9199,VALID,141,VALID,0,
2009-06-18, 02:10:00,VALID,916.782,VALID,0,VALID,99.2538,VALID,-0.0849042,VALID,17.9328,VALID,144,VALID,0,
2009-06-18, 02:11:00,VALID,916.77,VALID,0,VALID,99.1801,VALID,-0.0849042,VALID,17.9423,VALID,143,VALID,0,
2009-06-18, 02:12:00,VALID,916.763,VALID,0,VALID,99.1813,VALID,0.0509425,VALID,17.9537,VALID,134,VALID,0,
2009-06-18, 02:13:00,VALID,916.765,VALID,0,VALID,99.1699,VALID,0,VALID,17.9477,VALID,134,VALID,0,
2009-06-18, 02:14:00,VALID,916.76,VALID,0,VALID,99.325,VALID,0.0169808,VALID,17.9834,VALID,132,VALID,0,
2009-06-18, 02:15:00,VALID,916.763,VALID,0,VALID,99.1928,VALID,0,VALID,18.0126,VALID,127,VALID,0,
2009-06-18, 02:16:00,VALID,916.737,VALID,0,VALID,99.1343,VALID,0.0509425,VALID,18.0383,VALID,128,VALID,0,
2009-06-18, 02:17:00,VALID,916.72,VALID,0,VALID,99.0326,VALID,0.0849042,VALID,18.0575,VALID,130,VALID,0.116044,
2009-06-18, 02:18:00,VALID,916.679,VALID,0,VALID,98.9346,VALID,0.0509425,VALID,18.0999,VALID,129,VALID,0.168826,
2009-06-18, 02:19:00,VALID,916.69,VALID,0,VALID,98.7032,VALID,0.0339617,VALID,18.1159,VALID,135,VALID,0,
2009-06-18, 02:20:00,VALID,916.694,VALID,0,VALID,98.5786,VALID,0.0169808,VALID,18.1163,VALID,137,VALID,0,
2009-06-18, 02:21:00,VALID,916.694,VALID,0,VALID,98.5392,VALID,0.0509425,VALID,18.0966,VALID,136,VALID,0,
2009-06-18, 02:22:00,VALID,916.718,VALID,0,VALID,98.6358,VALID,0.0339617,VALID,18.1001,VALID,138,VALID,0,
2009-06-18, 02:23:00,VALID,916.74,VALID,0,VALID,98.5595,VALID,0.0169808,VALID,18.0802,VALID,136,VALID,0,
2009-06-18, 02:24:00,VALID,916.753,VALID,0,VALID,98.44,VALID,0.0679233,VALID,18.051,VALID,141,VALID,0,
2009-06-18, 02:25:00,VALID,916.774,VALID,0,VALID,98.5265,VALID,0.0849042,VALID,18.0093,VALID,139,VALID,0,
2009-06-18, 02:26:00,VALID,916.751,VALID,0,VALID,98.7719,VALID,0.0679233,VALID,17.9957,VALID,138,VALID,0,
2009-06-18, 02:27:00,VALID,916.757,VALID,0,VALID,98.9308,VALID,0.0849042,VALID,18.0084,VALID,138,VALID,0.0319444,
2009-06-18, 02:28:00,VALID,916.777,VALID,0,VALID,98.8978,VALID,0.0169808,VALID,18.0188,VALID,136,VALID,0,
2009-06-18, 02:29:00,VALID,916.772,VALID,0,VALID,98.8227,VALID,0,VALID,17.9957,VALID,137,VALID,0,
2009-06-18, 02:30:00,VALID,916.773,VALID,0,VALID,98.9525,VALID,0.0169808,VALID,17.9996,VALID,132,VALID,0,
2009-06-18, 02:31:00,VALID,916.763,VALID,0,VALID,98.9067,VALID,0.0509425,VALID,17.973,VALID,137,VALID,0,
2009-06-18, 02:32:00,VALID,916.757,VALID,0,VALID,98.9194,VALID,0.0339617,VALID,17.9669,VALID,140,VALID,0.0431386,
2009-06-18, 02:33:00,VALID,916.765,VALID,0,VALID,98.9893,VALID,0.0339617,VALID,17.9662,VALID,139,VALID,0,
2009-06-18, 02:34:00,VALID,916.768,VALID,0,VALID,98.9728,VALID,0.0169808,VALID,17.9537,VALID,145,VALID,0,
2009-06-18, 02:35:00,VALID,916.794,VALID,0,VALID,99.1254,VALID,0.0169808,VALID,17.9704,VALID,144,VALID,0,
2009-06-18, 02:36:00,VALID,916.786,VALID,0,VALID,99.0542,VALID,0.0339617,VALID,17.9764,VALID,150,VALID,0,
2009-06-18, 02:37:00,VALID,916.777,VALID,0,VALID,98.8812,VALID,0.0339617,VALID,17.9799,VALID,141,VALID,0,
2009-06-18, 02:38:00,VALID,916.777,VALID,0,VALID,98.9461,VALID,0,VALID,17.9797,VALID,139,VALID,0,
2009-06-18, 02:39:00,VALID,916.78,VALID,0,VALID,98.9168,VALID,0.0169808,VALID,17.9794,VALID,140,VALID,0,
2009-06-18, 02:40:00,VALID,916.779,VALID,0,VALID,98.8634,VALID,0.0679233,VALID,17.9632,VALID,140,VALID,0,
2009-06-18, 02:41:00,VALID,916.785,VALID,0,VALID,98.8634,VALID,0.0169808,VALID,17.9343,VALID,140,VALID,0,
2009-06-18, 02:42:00,VALID,916.799,VALID,0,VALID,98.9308,VALID,-0.0849042,VALID,17.9062,VALID,146,VALID,0,
2009-06-18, 02:43:00,VALID,916.774,VALID,0,VALID,99.147,VALID,-0.0849042,VALID,17.9032,VALID,145,VALID,0,
2009-06-18, 02:44:00,VALID,916.758,VALID,0,VALID,99.2983,VALID,-0.0849042,VALID,17.9127,VALID,142,VALID,0,
2009-06-18, 02:45:00,VALID,916.737,VALID,0,VALID,99.2297,VALID,-0.0679233,VALID,17.9194,VALID,133,VALID,0,
2009-06-18, 02:46:00,VALID,916.733,VALID,0,VALID,99.1445,VALID,-0.0339617,VALID,17.8963,VALID,137,VALID,0,
2009-06-18, 02:47:00,VALID,916.731,VALID,0,VALID,99.2742,VALID,-0.0509425,VALID,17.8935,VALID,130,VALID,0.0805432,
2009-06-18, 02:48:00,VALID,916.761,VALID,0,VALID,99.3428,VALID,-0.0509425,VALID,17.8993,VALID,126,VALID,0,
2009-06-18, 02:49:00,VALID,916.788,VALID,0,VALID,99.2106,VALID,-0.0679233,VALID,17.8898,VALID,118,VALID,0.000558036,
2009-06-18, 02:50:00,VALID,916.78,VALID,0,VALID,99.3886,VALID,-0.0679233,VALID,17.9064,VALID,125,VALID,0.00550426,
2009-06-18, 02:51:00,VALID,916.779,VALID,0,VALID,99.512,VALID,-0.0509425,VALID,17.9092,VALID,124,VALID,0.151296,
2009-06-18, 02:52:00,VALID,916.794,VALID,0,VALID,99.5361,VALID,-0.0679233,VALID,17.9486,VALID,126,VALID,0.146587,
2009-06-18, 02:53:00,VALID,916.809,VALID,0,VALID,99.5361,VALID,-0.0679233,VALID,17.9713,VALID,125,VALID,0.158558,
2009-06-18, 02:54:00,VALID,916.806,VALID,0,VALID,99.4814,VALID,-0.0509425,VALID,17.984,VALID,127,VALID,0,
2009-06-18, 02:55:00,VALID,916.792,VALID,0,VALID,99.428,VALID,-0.0849042,VALID,17.9847,VALID,127,VALID,0,
2009-06-18, 02:56:00,VALID,916.775,VALID,0,VALID,99.4725,VALID,-0.0849042,VALID,17.9648,VALID,131,VALID,0,
2009-06-18, 02:57:00,VALID,916.76,VALID,0,VALID,99.414,VALID,-0.118866,VALID,17.9521,VALID,134,VALID,0,
2009-06-18, 02:58:00,VALID,916.746,VALID,0,VALID,99.4725,VALID,-0.0849042,VALID,17.9231,VALID,135,VALID,0,
2009-06-18, 02:59:00,VALID,916.726,VALID,0,VALID,99.6188,VALID,-0.101885,VALID,17.9034,VALID,130,VALID,0.0106534,
2009-06-18, 03:00:00,VALID,916.712,VALID,0,VALID,99.821,VALID,-0.0679233,VALID,17.9,VALID,127,VALID,0.00181686,
2009-06-18, 03:01:00,VALID,916.712,VALID,0,VALID,99.7981,VALID,-0.0679233,VALID,17.8969,VALID,127,VALID,0.0575945,
2009-06-18, 03:02:00,VALID,916.703,VALID,0,VALID,99.9451,VALID,-0.118866,VALID,17.9104,VALID,128,VALID,0.0526414,
2009-06-18, 03:03:00,VALID,916.695,VALID,0,VALID,99.8828,VALID,-0.0849042,VALID,17.9261,VALID,111,VALID,0,
2009-06-18, 03:04:00,VALID,916.708,VALID,0,VALID,99.9046,VALID,-0.0849042,VALID,17.9194,VALID,118,VALID,0,
2009-06-18, 03:05:00,VALID,916.708,VALID,0,VALID,99.8093,VALID,-0.0679233,VALID,17.8969,VALID,124,VALID,0.0756392,
2009-06-18, 03:06:00,VALID,916.694,VALID,0,VALID,99.897,VALID,-0.0849042,VALID,17.9037,VALID,124,VALID,0.0314317,
2009-06-18, 03:07:00,VALID,916.679,VALID,0,VALID,99.8197,VALID,-0.0509425,VALID,17.877,VALID,133,VALID,0,
2009-06-18, 03:08:00,VALID,916.646,VALID,0,VALID,99.9766,VALID,-0.0849042,VALID,17.8675,VALID,134,VALID,0,
2009-06-18, 03:09:00,VALID,916.656,VALID,0,VALID,99.9163,VALID,-0.0679233,VALID,17.8511,VALID,135,VALID,0.0158155,
2009-06-18, 03:10:00,VALID,916.66,VALID,0,VALID,99.84,VALID,-0.118866,VALID,17.8096,VALID,137,VALID,0.117188,
2009-06-18, 03:11:00,VALID,916.672,VALID,0,VALID,99.9062,VALID,-0.0849042,VALID,17.78,VALID,134,VALID,0,
2009-06-18, 03:12:00,VALID,916.654,VALID,0,VALID,100,VALID,0.0169808,VALID,17.7851,VALID,135,VALID,0.0592296,
2009-06-18, 03:13:00,VALID,916.638,VALID,0,VALID,100,VALID,0.0169808,VALID,17.8141,VALID,137,VALID,0,
2009-06-18, 03:14:00,VALID,916.595,VALID,0,VALID,100,VALID,0.0339617,VALID,17.8268,VALID,135,VALID,0,
2009-06-18, 03:15:00,VALID,916.575,VALID,0,VALID,100,VALID,0.0679233,VALID,17.8435,VALID,134,VALID,0,
2009-06-18, 03:16:00,VALID,916.547,VALID,0,VALID,100,VALID,0.0339617,VALID,17.8502,VALID,139,VALID,0,
2009-06-18, 03:17:00,VALID,916.543,VALID,0,VALID,100,VALID,0.0339617,VALID,17.8826,VALID,129,VALID,0,
2009-06-18, 03:18:00,VALID,916.552,VALID,0,VALID,100,VALID,0,VALID,17.8984,VALID,126,VALID,0.0568182,
2009-06-18, 03:19:00,VALID,916.567,VALID,0,VALID,100,VALID,0,VALID,17.9051,VALID,137,VALID,0.0487351,
2009-06-18, 03:20:00,VALID,916.565,VALID,0,VALID,100,VALID,0.0339617,VALID,17.9014,VALID,139,VALID,0,
2009-06-18, 03:21:00,VALID,916.541,VALID,0,VALID,100,VALID,0,VALID,17.9181,VALID,142,VALID,0.00133384,
2009-06-18, 03:22:00,VALID,916.508,VALID,0,VALID,100,VALID,0.0169808,VALID,17.9408,VALID,137,VALID,0,
2009-06-18, 03:23:00,VALID,916.476,VALID,0,VALID,100,VALID,0,VALID,17.9801,VALID,131,VALID,0.00053267,
2009-06-18, 03:24:00,VALID,916.435,VALID,0,VALID,100,VALID,0,VALID,17.9929,VALID,126,VALID,0.010831,
2009-06-18, 03:25:00,VALID,916.433,VALID,0,VALID,100,VALID,0.0339617,VALID,17.9926,VALID,117,VALID,0,
2009-06-18, 03:26:00,VALID,916.44,VALID,0,VALID,100,VALID,0,VALID,18.0184,VALID,118,VALID,0,
2009-06-18, 03:27:00,VALID,916.446,VALID,0,VALID,100,VALID,-0.101885,VALID,18.0202,VALID,109,VALID,0,
2009-06-18, 03:28:00,VALID,916.434,VALID,0,VALID,99.9919,VALID,-0.101885,VALID,18.02,VALID,102,VALID,0.0500801,
2009-06-18, 03:29:00,VALID,916.445,VALID,0,VALID,100,VALID,-0.0849042,VALID,18.0232,VALID,107,VALID,0,
2009-06-18, 03:30:00,VALID,916.431,VALID,0,VALID,100,VALID,-0.0849042,VALID,18.0684,VALID,112,VALID,0,
2009-06-18, 03:31:00,VALID,916.42,VALID,0,VALID,99.8294,VALID,-0.0849042,VALID,18.0915,VALID,131,VALID,0,
2009-06-18, 03:32:00,VALID,916.403,VALID,0,VALID,99.4395,VALID,-0.101885,VALID,18.0137,VALID,133,VALID,0,
2009-06-18, 03:33:00,VALID,916.406,VALID,0,VALID,99.4001,VALID,-0.101885,VALID,17.9456,VALID,128,VALID,0,
2009-06-18, 03:34:00,VALID,916.413,VALID,0,VALID,99.4458,VALID,-0.0849042,VALID,17.8543,VALID,123,VALID,0,
2009-06-18, 03:35:00,VALID,916.421,VALID,0,VALID,99.8311,VALID,-0.101885,VALID,17.8124,VALID,129,VALID,0,
2009-06-18, 03:36:00,VALID,916.423,VALID,0,VALID,99.9888,VALID,-0.101885,VALID,17.7934,VALID,134,VALID,0,
2009-06-18, 03:37:00,VALID,916.418,VALID,0,VALID,100,VALID,-0.101885,VALID,17.7577,VALID,131,VALID,0,
2009-06-18, 03:38:00,VALID,916.409,VALID,0,VALID,100,VALID,-0.101885,VALID,17.7577,VALID,129,VALID,0,
2009-06-18, 03:39:00,VALID,916.406,VALID,0,VALID,100,VALID,-0.101885,VALID,17.7869,VALID,124,VALID,0.0480183,
2009-06-18, 03:40:00,VALID,916.405,VALID,0,VALID,100,VALID,-0.101885,VALID,17.7767,VALID,124,VALID,0.0220486,
2009-06-18, 03:41:00,VALID,916.398,VALID,0,VALID,100,VALID,-0.0679233,VALID,17.7573,VALID,123,VALID,0.044779,
2009-06-18, 03:42:00,VALID,916.368,VALID,0,VALID,100,VALID,0,VALID,17.7462,VALID,121,VALID,0.0012718,
2009-06-18, 03:43:00,VALID,916.368,VALID,0,VALID,100,VALID,0,VALID,17.7272,VALID,111,VALID,0.0574219,
2009-06-18, 03:44:00,VALID,916.36,VALID,0,VALID,100,VALID,0.0169808,VALID,17.7334,VALID,111,VALID,0.00213068,